| time (UTC) | temp F | wind direction | speed MPH | gust MPH | rain 1hr in | rain 24hr in | rain mn in | humidity % | barometer mb |
| 20260502203502 | 54 | 305 | 4.0 | 9.0 | 0.00 | 0.00 | 0.00 | 43 | 1019.0 |
| 20260502203002 | 54 | 305 | 5.0 | 7.0 | 0.00 | 0.00 | 0.00 | 45 | 1019.2 |
| 20260502202502 | 55 | 325 | 6.0 | 7.0 | 0.00 | 0.00 | 0.00 | 41 | 1019.2 |
| 20260502202002 | 55 | 280 | 3.0 | 9.0 | 0.00 | 0.00 | 0.00 | 41 | 1019.4 |
| 20260502201501 | 55 | 290 | 3.0 | 7.0 | 0.00 | 0.00 | 0.00 | 43 | 1019.6 |
| 20260502201002 | 54 | 303 | 4.0 | 11.0 | 0.00 | 0.00 | 0.00 | 42 | 1019.4 |
| 20260502200502 | 54 | 296 | 2.0 | 5.0 | 0.00 | 0.00 | 0.00 | 43 | 1019.5 |
| 20260502200002 | 56 | 285 | 4.0 | 7.0 | 0.00 | 0.00 | 0.00 | 42 | 1019.7 |
| 20260502195501 | 55 | 339 | 5.0 | 7.0 | 0.00 | 0.00 | 0.00 | 40 | 1019.7 |
| 20260502195002 | 55 | 272 | 3.0 | 7.0 | 0.00 | 0.00 | 0.00 | 45 | 1019.8 |
| 20260502194502 | 54 | 245 | 3.0 | 9.0 | 0.00 | 0.00 | 0.00 | 42 | 1019.7 |
| 20260502194001 | 53 | 287 | 4.0 | 10.0 | 0.00 | 0.00 | 0.00 | 45 | 1019.9 |
| 20260502193502 | 54 | 273 | 6.0 | 11.0 | 0.00 | 0.00 | 0.00 | 45 | 1020.1 |
| 20260502193002 | 55 | 330 | 4.0 | 7.0 | 0.00 | 0.00 | 0.00 | 40 | 1020.1 |
| 20260502192502 | 54 | 341 | 5.0 | 9.0 | 0.00 | 0.00 | 0.00 | 43 | 1020.0 |
| 20260502192001 | 53 | 298 | 4.0 | 6.0 | 0.00 | 0.00 | 0.00 | 43 | 1020.0 |
| 20260502191502 | 53 | 263 | 5.0 | 11.0 | 0.00 | 0.00 | 0.00 | 44 | 1020.3 |
| 20260502191002 | 54 | 292 | 3.0 | 6.0 | 0.00 | 0.00 | 0.00 | 42 | 1020.2 |
| 20260502190502 | 53 | 307 | 3.0 | 9.0 | 0.00 | 0.00 | 0.00 | 43 | 1020.4 |
| 20260502190001 | 54 | 306 | 4.0 | 9.0 | 0.00 | 0.00 | 0.00 | 43 | 1020.2 |
| 20260502185502 | 54 | 81 | 2.0 | 6.0 | 0.00 | 0.00 | 0.00 | 41 | 1020.4 |
| 20260502185002 | 52 | 288 | 4.0 | 6.0 | 0.00 | 0.00 | 0.00 | 43 | 1020.6 |
| 20260502184502 | 52 | 288 | 3.0 | 6.0 | 0.00 | 0.00 | 0.00 | 45 | 1020.7 |
| 20260502184001 | 53 | 278 | 3.0 | 9.0 | 0.00 | 0.00 | 0.00 | 44 | 1020.6 |
| 20260502183502 | 54 | 330 | 3.0 | 6.0 | 0.00 | 0.00 | 0.00 | 42 | 1020.7 |
| 20260502183002 | 52 | 322 | 5.0 | 10.0 | 0.00 | 0.00 | 0.00 | 41 | 1020.7 |
| 20260502182502 | 52 | 312 | 6.0 | 7.0 | 0.00 | 0.00 | 0.00 | 45 | 1020.8 |
| 20260502182002 | 52 | 307 | 3.0 | 4.0 | 0.00 | 0.00 | 0.00 | 46 | 1020.7 |
| 20260502181502 | 51 | 283 | 9.0 | 13.0 | 0.00 | 0.00 | 0.00 | 44 | 1020.6 |
| 20260502181002 | 52 | 292 | 4.0 | 9.0 | 0.00 | 0.00 | 0.00 | 46 | 1020.7 |
| 20260502180502 | 53 | 268 | 7.0 | 9.0 | 0.00 | 0.00 | 0.00 | 40 | 1020.7 |
| 20260502170502 | 52 | 261 | 5.0 | 9.0 | 0.00 | 0.00 | 0.00 | 46 | 1021.3 |
| 20260502164001 | 51 | 2 | 6.0 | 11.0 | 0.00 | 0.00 | 0.00 | 47 | 1021.4 |
| 20260502163502 | 48 | 298 | 4.0 | 5.0 | 0.00 | 0.00 | 0.00 | 49 | 1021.5 |
| 20260502163002 | 49 | 359 | 4.0 | 6.0 | 0.00 | 0.00 | 0.00 | 49 | 1021.5 |
| 20260502162502 | 50 | 300 | 3.0 | 4.0 | 0.00 | 0.00 | 0.00 | 48 | 1021.9 |
| 20260502162001 | 53 | 246 | 8.0 | 10.0 | 0.00 | 0.00 | 0.00 | 45 | 1021.7 |
| 20260502161502 | 53 | 304 | 2.0 | 4.0 | 0.00 | 0.00 | 0.00 | 52 | 1021.8 |
| 20260502161002 | 51 | 307 | 2.0 | 5.0 | 0.00 | 0.00 | 0.00 | 45 | 1021.6 |
| 20260502160502 | 49 | 302 | 3.0 | 5.0 | 0.00 | 0.00 | 0.00 | 55 | 1021.6 |
| 20260502152002 | 48 | 289 | 3.0 | 7.0 | 0.00 | 0.00 | 0.00 | 49 | 1022.0 |
| 20260502151502 | 49 | 294 | 1.0 | 5.0 | 0.00 | 0.00 | 0.00 | 49 | 1021.8 |
| 20260502151002 | 48 | 226 | 3.0 | 4.0 | 0.00 | 0.00 | 0.00 | 49 | 1021.7 |
| 20260502150502 | 49 | 251 | 4.0 | 6.0 | 0.00 | 0.00 | 0.00 | 48 | 1021.9 |
| 20260502130502 | 43 | 299 | 2.0 | 3.0 | 0.00 | 0.00 | 0.00 | 70 | 1021.7 |
| 20260502123502 | 38 | 272 | 2.0 | 3.0 | 0.00 | 0.00 | 0.00 | 97 | 1021.5 |
| 20260502123002 | 37 | 291 | 0.0 | 0.0 | 0.00 | 0.00 | 0.00 | 99 | 1021.3 |
| 20260502122502 | 37 | 287 | 0.0 | 0.0 | 0.00 | 0.00 | 0.00 | 99 | 1021.5 |
| 20260502122001 | 36 | 289 | 0.0 | 0.0 | 0.00 | 0.00 | 0.00 | 99 | 1021.4 |
| 20260502121502 | 35 | 290 | 0.0 | 0.0 | 0.00 | 0.00 | 0.00 | 99 | 1021.4 |
| 20260502121002 | 35 | 285 | 0.0 | 0.0 | 0.00 | 0.00 | 0.00 | 99 | 1021.6 |
| 20260502120501 | 34 | 284 | 0.0 | 0.0 | 0.00 | 0.00 | 0.00 | 99 | 1021.2 |
| 20260502115502 | 32 | 289 | 0.0 | 0.0 | 0.00 | 0.00 | 0.00 | 99 | 1021.2 |
| 20260502115001 | 30 | 289 | 0.0 | 0.0 | 0.00 | 0.00 | 0.00 | 99 | 1021.2 |
| 20260502114502 | 29 | 289 | 0.0 | 0.0 | 0.00 | 0.00 | 0.00 | 99 | 1021.1 |
| 20260502114002 | 28 | 289 | 0.0 | 0.0 | 0.00 | 0.00 | 0.00 | 99 | 1021.0 |
| 20260502113501 | 28 | 289 | 0.0 | 0.0 | 0.00 | 0.00 | 0.00 | 99 | 1021.1 |
| 20260502113002 | 28 | 289 | 0.0 | 0.0 | 0.00 | 0.00 | 0.00 | 99 | 1020.9 |
| 20260502112502 | 28 | 289 | 0.0 | 0.0 | 0.00 | 0.00 | 0.00 | 99 | 1020.9 |
| 20260502112002 | 28 | 289 | 0.0 | 0.0 | 0.00 | 0.00 | 0.00 | 99 | 1020.8 |
| 20260502111502 | 28 | 289 | 0.0 | 0.0 | 0.00 | 0.00 | 0.00 | 99 | 1020.8 |
| 20260502111002 | 28 | 289 | 0.0 | 0.0 | 0.00 | 0.00 | 0.00 | 99 | 1020.8 |
| 20260502110502 | 28 | 289 | 0.0 | 0.0 | 0.00 | 0.00 | 0.00 | 99 | 1020.9 |
| 20260502110002 | 29 | 289 | 0.0 | 0.0 | 0.00 | 0.00 | 0.00 | 99 | 1020.8 |
| 20260502105501 | 28 | 289 | 0.0 | 0.0 | 0.00 | 0.00 | 0.00 | 99 | 1020.7 |
| 20260502105002 | 28 | 289 | 0.0 | 0.0 | 0.00 | 0.00 | 0.00 | 99 | 1020.7 |
| 20260502104502 | 28 | 289 | 0.0 | 0.0 | 0.00 | 0.00 | 0.00 | 99 | 1020.6 |
| 20260502104001 | 28 | 289 | 0.0 | 0.0 | 0.00 | 0.00 | 0.00 | 99 | 1020.7 |
| 20260502103502 | 28 | 289 | 0.0 | 0.0 | 0.00 | 0.00 | 0.00 | 99 | 1020.9 |
| 20260502103002 | 28 | 289 | 0.0 | 0.0 | 0.00 | 0.00 | 0.00 | 99 | 1020.7 |
| 20260502102501 | 27 | 289 | 0.0 | 0.0 | 0.00 | 0.00 | 0.00 | 99 | 1020.8 |
| 20260502102002 | 27 | 289 | 0.0 | 0.0 | 0.00 | 0.00 | 0.00 | 99 | 1020.7 |
| 20260502101502 | 27 | 289 | 0.0 | 0.0 | 0.00 | 0.00 | 0.00 | 99 | 1020.6 |
| 20260502101002 | 28 | 289 | 0.0 | 0.0 | 0.00 | 0.00 | 0.00 | 99 | 1020.5 |
| 20260502100502 | 27 | 289 | 0.0 | 0.0 | 0.00 | 0.00 | 0.00 | 99 | 1020.8 |
| 20260502091502 | 29 | 289 | 0.0 | 0.0 | 0.00 | 0.00 | 0.00 | 99 | 1020.6 |
| 20260502091002 | 29 | 289 | 0.0 | 0.0 | 0.00 | 0.00 | 0.00 | 99 | 1020.6 |
| 20260502090502 | 28 | 289 | 0.0 | 0.0 | 0.00 | 0.00 | 0.00 | 99 | 1020.5 |
| 20260502071501 | 32 | 287 | 0.0 | 0.0 | 0.00 | 0.00 | 0.00 | 95 | 1020.8 |
| 20260502071002 | 32 | 287 | 0.0 | 0.0 | 0.00 | 0.00 | 0.00 | 95 | 1020.5 |
| 20260502070502 | 32 | 287 | 0.0 | 0.0 | 0.00 | 0.00 | 0.00 | 95 | 1020.8 |
| 20260502070001 | 32 | 287 | 0.0 | 0.0 | 0.00 | 0.00 | 0.00 | 95 | 1020.7 |
| 20260502065502 | 32 | 287 | 0.0 | 0.0 | 0.00 | 0.00 | 0.00 | 95 | 1021.0 |
| 20260502065002 | 32 | 287 | 0.0 | 0.0 | 0.00 | 0.00 | 0.00 | 94 | 1020.8 |
| 20260502064502 | 33 | 287 | 0.0 | 0.0 | 0.00 | 0.00 | 0.00 | 94 | 1021.0 |
| 20260502064002 | 33 | 287 | 0.0 | 0.0 | 0.00 | 0.00 | 0.00 | 94 | 1021.1 |
| 20260502063502 | 32 | 287 | 0.0 | 0.0 | 0.00 | 0.00 | 0.00 | 94 | 1020.9 |
| 20260502063002 | 33 | 287 | 0.0 | 0.0 | 0.00 | 0.00 | 0.00 | 93 | 1021.0 |
| 20260502062502 | 33 | 287 | 0.0 | 0.0 | 0.00 | 0.00 | 0.00 | 93 | 1020.8 |
| 20260502062002 | 33 | 287 | 0.0 | 0.0 | 0.00 | 0.00 | 0.00 | 93 | 1021.0 |
| 20260502061501 | 33 | 287 | 0.0 | 0.0 | 0.00 | 0.00 | 0.00 | 92 | 1021.1 |
| 20260502061002 | 33 | 287 | 0.0 | 0.0 | 0.00 | 0.00 | 0.00 | 91 | 1020.8 |
| 20260502060502 | 33 | 286 | 0.0 | 0.0 | 0.00 | 0.00 | 0.00 | 90 | 1021.3 |
| 20260502060001 | 33 | 286 | 0.0 | 0.0 | 0.00 | 0.00 | 0.00 | 89 | 1021.1 |
| 20260502055503 | 34 | 286 | 0.0 | 0.0 | 0.00 | 0.00 | 0.00 | 89 | 1021.3 |
| 20260502055001 | 34 | 286 | 0.0 | 0.0 | 0.00 | 0.00 | 0.00 | 88 | 1021.2 |
| 20260502054502 | 34 | 286 | 0.0 | 0.0 | 0.00 | 0.00 | 0.00 | 87 | 1021.3 |
| 20260502054002 | 35 | 286 | 0.0 | 0.0 | 0.00 | 0.00 | 0.00 | 86 | 1021.3 |
| 20260502053502 | 36 | 286 | 0.0 | 0.0 | 0.00 | 0.00 | 0.00 | 85 | 1021.3 |
| 20260502053002 | 36 | 285 | 0.0 | 0.0 | 0.00 | 0.00 | 0.00 | 84 | 1021.3 |
| 20260502052502 | 37 | 286 | 0.0 | 0.0 | 0.00 | 0.00 | 0.00 | 83 | 1021.2 |
| 20260502051501 | 37 | 293 | 0.0 | 0.0 | 0.00 | 0.00 | 0.00 | 82 | 1021.4 |
| 20260502051002 | 37 | 295 | 1.0 | 2.0 | 0.00 | 0.00 | 0.00 | 83 | 1021.2 |
| 20260502050502 | 37 | 294 | 0.0 | 0.0 | 0.00 | 0.00 | 0.00 | 82 | 1021.4 |
| 20260502050002 | 37 | 294 | 0.0 | 0.0 | 0.00 | 0.00 | 0.01 | 82 | 1021.2 |
| 20260502045502 | 38 | 295 | 0.0 | 0.0 | 0.00 | 0.00 | 0.01 | 81 | 1021.3 |
| 20260502045002 | 38 | 305 | 1.0 | 2.0 | 0.00 | 0.00 | 0.01 | 80 | 1021.2 |
| 20260502044502 | 38 | 325 | 1.0 | 2.0 | 0.00 | 0.00 | 0.01 | 80 | 1021.3 |
| 20260502044003 | 38 | 296 | 0.0 | 2.0 | 0.00 | 0.00 | 0.01 | 80 | 1021.3 |
| 20260502043502 | 38 | 296 | 0.0 | 3.0 | 0.00 | 0.00 | 0.01 | 80 | 1021.1 |
| 20260502043002 | 38 | 316 | 0.0 | 2.0 | 0.00 | 0.00 | 0.01 | 80 | 1021.3 |
| 20260502042502 | 38 | 318 | 1.0 | 2.0 | 0.00 | 0.00 | 0.01 | 80 | 1020.9 |
| 20260502042002 | 38 | 286 | 1.0 | 2.0 | 0.00 | 0.00 | 0.01 | 79 | 1021.3 |
| 20260502041502 | 38 | 314 | 1.0 | 3.0 | 0.00 | 0.00 | 0.01 | 78 | 1021.1 |
| 20260502041002 | 38 | 314 | 2.0 | 4.0 | 0.00 | 0.00 | 0.01 | 78 | 1021.1 |
| 20260502040502 | 38 | 325 | 2.0 | 3.0 | 0.00 | 0.00 | 0.01 | 78 | 1021.1 |
| 20260502040002 | 38 | 316 | 1.0 | 2.0 | 0.00 | 0.00 | 0.01 | 79 | 1021.3 |
| 20260502035502 | 38 | 304 | 1.0 | 2.0 | 0.00 | 0.00 | 0.01 | 79 | 1021.2 |
| 20260502035002 | 38 | 344 | 2.0 | 3.0 | 0.00 | 0.00 | 0.01 | 78 | 1021.3 |
| 20260502034502 | 38 | 300 | 1.0 | 2.0 | 0.00 | 0.00 | 0.01 | 79 | 1021.1 |
| 20260502034001 | 38 | 307 | 1.0 | 2.0 | 0.00 | 0.00 | 0.01 | 78 | 1021.1 |
| 20260502033502 | 38 | 337 | 2.0 | 3.0 | 0.00 | 0.00 | 0.01 | 78 | 1021.0 |
| 20260502033002 | 38 | 302 | 0.0 | 2.0 | 0.00 | 0.00 | 0.01 | 79 | 1021.0 |
| 20260502032503 | 38 | 313 | 2.0 | 3.0 | 0.00 | 0.00 | 0.01 | 79 | 1021.2 |
| 20260502032002 | 37 | 294 | 0.0 | 2.0 | 0.00 | 0.00 | 0.01 | 80 | 1020.9 |
| 20260502031502 | 37 | 298 | 0.0 | 2.0 | 0.00 | 0.00 | 0.01 | 79 | 1020.9 |
| 20260502031002 | 38 | 343 | 1.0 | 2.0 | 0.00 | 0.00 | 0.01 | 79 | 1021.1 |
| 20260502030501 | 37 | 357 | 2.0 | 3.0 | 0.00 | 0.00 | 0.01 | 79 | 1020.8 |
| 20260502030002 | 38 | 326 | 0.0 | 0.0 | 0.00 | 0.00 | 0.01 | 79 | 1020.8 |
| 20260502025502 | 38 | 294 | 0.0 | 3.0 | 0.00 | 0.00 | 0.01 | 79 | 1020.7 |
| 20260502025002 | 38 | 315 | 1.0 | 3.0 | 0.00 | 0.00 | 0.01 | 79 | 1020.8 |
| 20260502024502 | 38 | 302 | 0.0 | 3.0 | 0.00 | 0.00 | 0.01 | 79 | 1020.8 |
| 20260502024003 | 38 | 326 | 1.0 | 2.0 | 0.00 | 0.00 | 0.01 | 79 | 1020.8 |
| 20260502023501 | 38 | 299 | 1.0 | 2.0 | 0.00 | 0.00 | 0.01 | 79 | 1020.6 |
| 20260502023002 | 38 | 287 | 1.0 | 2.0 | 0.00 | 0.00 | 0.01 | 79 | 1020.6 |
| 20260502022502 | 39 | 298 | 1.0 | 2.0 | 0.00 | 0.00 | 0.01 | 78 | 1020.7 |
| 20260502022001 | 39 | 60 | 2.0 | 4.0 | 0.00 | 0.00 | 0.01 | 78 | 1020.4 |
| 20260502021502 | 39 | 337 | 1.0 | 4.0 | 0.00 | 0.00 | 0.01 | 78 | 1020.4 |
| 20260502021002 | 39 | 18 | 2.0 | 4.0 | 0.00 | 0.00 | 0.01 | 79 | 1020.5 |
| 20260502020502 | 39 | 340 | 1.0 | 4.0 | 0.00 | 0.00 | 0.01 | 79 | 1020.3 |
| 20260502020001 | 39 | 340 | 2.0 | 4.0 | 0.00 | 0.00 | 0.01 | 80 | 1020.2 |
| 20260502015502 | 39 | 127 | 3.0 | 5.0 | 0.00 | 0.00 | 0.01 | 80 | 1020.3 |
| 20260502015002 | 39 | 305 | 1.0 | 4.0 | 0.00 | 0.00 | 0.01 | 79 | 1020.4 |
| 20260502014502 | 39 | 13 | 2.0 | 5.0 | 0.00 | 0.00 | 0.01 | 79 | 1019.9 |
| 20260502014001 | 40 | 4 | 3.0 | 4.0 | 0.00 | 0.00 | 0.01 | 79 | 1019.8 |
| 20260502013502 | 40 | 51 | 2.0 | 4.0 | 0.00 | 0.00 | 0.01 | 78 | 1019.5 |
| 20260502013002 | 40 | 60 | 4.0 | 5.0 | 0.00 | 0.00 | 0.01 | 78 | 1019.7 |
| 20260502012502 | 40 | 76 | 3.0 | 5.0 | 0.00 | 0.00 | 0.01 | 77 | 1019.5 |
| 20260502012001 | 40 | 356 | 4.0 | 7.0 | 0.00 | 0.00 | 0.01 | 77 | 1019.4 |
| 20260502011502 | 40 | 0 | 5.0 | 6.0 | 0.00 | 0.00 | 0.01 | 76 | 1019.7 |
| 20260502011002 | 40 | 80 | 4.0 | 6.0 | 0.00 | 0.00 | 0.01 | 77 | 1019.6 |
| 20260502010502 | 41 | 345 | 2.0 | 5.0 | 0.00 | 0.00 | 0.01 | 76 | 1019.6 |
| 20260502010002 | 41 | 46 | 3.0 | 5.0 | 0.00 | 0.00 | 0.01 | 76 | 1019.4 |
| 20260502005501 | 41 | 343 | 2.0 | 6.0 | 0.00 | 0.00 | 0.01 | 75 | 1019.4 |
| 20260502005002 | 41 | 36 | 2.0 | 6.0 | 0.00 | 0.00 | 0.01 | 76 | 1019.3 |
| 20260502004502 | 42 | 36 | 3.0 | 5.0 | 0.00 | 0.00 | 0.01 | 76 | 1019.0 |
| 20260502004002 | 42 | 261 | 2.0 | 3.0 | 0.00 | 0.00 | 0.01 | 76 | 1019.2 |
| 20260502003501 | 43 | 332 | 4.0 | 6.0 | 0.00 | 0.00 | 0.01 | 75 | 1019.1 |
| 20260502003002 | 43 | 53 | 4.0 | 7.0 | 0.00 | 0.00 | 0.01 | 75 | 1019.1 |
| 20260502002502 | 43 | 69 | 4.0 | 6.0 | 0.00 | 0.00 | 0.01 | 74 | 1019.0 |
| 20260502002001 | 44 | 30 | 2.0 | 4.0 | 0.00 | 0.00 | 0.01 | 75 | 1018.8 |
| 20260502001502 | 44 | 55 | 3.0 | 5.0 | 0.00 | 0.00 | 0.01 | 75 | 1018.9 |
| 20260502001002 | 44 | 35 | 3.0 | 5.0 | 0.00 | 0.00 | 0.01 | 74 | 1018.9 |
| 20260502000502 | 44 | 340 | 2.0 | 3.0 | 0.00 | 0.00 | 0.01 | 74 | 1018.6 |
| 20260502000001 | 45 | 12 | 3.0 | 4.0 | 0.00 | 0.00 | 0.01 | 74 | 1018.7 |
| 20260501235502 | 45 | 330 | 2.0 | 2.0 | 0.00 | 0.01 | 0.01 | 75 | 1018.8 |
| 20260501235002 | 45 | 347 | 2.0 | 3.0 | 0.00 | 0.01 | 0.01 | 74 | 1018.8 |
| 20260501234502 | 45 | 2 | 1.0 | 4.0 | 0.00 | 0.01 | 0.01 | 73 | 1018.9 |
| 20260501234002 | 45 | 326 | 2.0 | 4.0 | 0.00 | 0.00 | 0.01 | 74 | 1018.9 |
| 20260501233502 | 45 | 43 | 3.0 | 5.0 | 0.00 | 0.00 | 0.01 | 73 | 1018.8 |
| 20260501233002 | 46 | 357 | 2.0 | 10.0 | 0.00 | 0.00 | 0.01 | 72 | 1019.0 |
| 20260501232501 | 46 | 61 | 3.0 | 5.0 | 0.00 | 0.00 | 0.01 | 71 | 1018.9 |
| 20260501232002 | 46 | 312 | 2.0 | 3.0 | 0.00 | 0.00 | 0.01 | 72 | 1018.8 |
| 20260501231502 | 46 | 325 | 2.0 | 4.0 | 0.00 | 0.00 | 0.01 | 71 | 1019.0 |
| 20260501231001 | 46 | 328 | 1.0 | 3.0 | 0.00 | 0.00 | 0.01 | 72 | 1019.0 |
| 20260501230502 | 47 | 97 | 4.0 | 5.0 | 0.00 | 0.00 | 0.01 | 71 | 1019.0 |
| 20260501230002 | 47 | 328 | 2.0 | 3.0 | 0.00 | 0.00 | 0.01 | 70 | 1019.0 |
| 20260501225502 | 48 | 340 | 1.0 | 3.0 | 0.00 | 0.00 | 0.01 | 69 | 1018.9 |
| 20260501225002 | 48 | 30 | 3.0 | 5.0 | 0.00 | 0.00 | 0.01 | 66 | 1018.9 |
| 20260501224502 | 49 | 297 | 2.0 | 3.0 | 0.00 | 0.00 | 0.01 | 67 | 1019.0 |
| 20260501224002 | 48 | 303 | 1.0 | 6.0 | 0.00 | 0.00 | 0.01 | 68 | 1019.0 |
| 20260501223501 | 48 | 288 | 1.0 | 6.0 | 0.00 | 0.00 | 0.01 | 69 | 1019.0 |
| 20260501223002 | 46 | 310 | 2.0 | 4.0 | 0.00 | 0.00 | 0.01 | 70 | 1019.0 |
| 20260501222502 | 46 | 162 | 2.0 | 4.0 | 0.00 | 0.00 | 0.01 | 70 | 1019.1 |
| 20260501222002 | 47 | 49 | 2.0 | 4.0 | 0.00 | 0.00 | 0.01 | 69 | 1019.0 |
| 20260501221502 | 47 | 323 | 1.0 | 4.0 | 0.00 | 0.00 | 0.01 | 69 | 1018.8 |
| 20260501221002 | 47 | 23 | 2.0 | 3.0 | 0.00 | 0.00 | 0.01 | 70 | 1019.1 |
| 20260501220502 | 47 | 316 | 2.0 | 4.0 | 0.00 | 0.00 | 0.01 | 68 | 1019.3 |
| 20260501220001 | 47 | 37 | 1.0 | 3.0 | 0.00 | 0.00 | 0.01 | 69 | 1019.0 |
| 20260501215502 | 47 | 10 | 3.0 | 4.0 | 0.00 | 0.00 | 0.01 | 69 | 1019.0 |
| 20260501215002 | 47 | 51 | 3.0 | 4.0 | 0.00 | 0.00 | 0.01 | 68 | 1019.2 |
| 20260501214502 | 48 | 38 | 1.0 | 4.0 | 0.00 | 0.00 | 0.01 | 70 | 1019.0 |
| 20260501214002 | 47 | 307 | 2.0 | 5.0 | 0.00 | 0.00 | 0.01 | 69 | 1018.9 |
| 20260501213502 | 48 | 355 | 1.0 | 3.0 | 0.00 | 0.00 | 0.01 | 71 | 1018.8 |
| 20260501213002 | 47 | 269 | 1.0 | 3.0 | 0.00 | 0.00 | 0.01 | 72 | 1018.9 |
| 20260501212501 | 47 | 16 | 3.0 | 4.0 | 0.00 | 0.00 | 0.01 | 70 | 1019.1 |
| 20260501212002 | 47 | 325 | 2.0 | 4.0 | 0.00 | 0.00 | 0.01 | 71 | 1018.7 |
| 20260501211502 | 47 | 256 | 2.0 | 4.0 | 0.00 | 0.00 | 0.01 | 71 | 1019.1 |
| 20260501211002 | 47 | 101 | 3.0 | 6.0 | 0.00 | 0.00 | 0.01 | 70 | 1018.8 |
| 20260501210501 | 47 | 1 | 3.0 | 5.0 | 0.00 | 0.00 | 0.01 | 71 | 1019.0 |
| 20260501210002 | 46 | 348 | 3.0 | 4.0 | 0.00 | 0.00 | 0.01 | 73 | 1018.7 |
| 20260501205502 | 47 | 11 | 3.0 | 11.0 | 0.00 | 0.00 | 0.01 | 71 | 1018.9 |
| 20260501205002 | 46 | 312 | 2.0 | 3.0 | 0.00 | 0.00 | 0.01 | 73 | 1019.1 |
| 20260501204502 | 46 | 356 | 2.0 | 6.0 | 0.00 | 0.00 | 0.01 | 73 | 1018.9 |
| 20260501204002 | 46 | 18 | 3.0 | 4.0 | 0.00 | 0.00 | 0.01 | 74 | 1018.5 |